Year,Month,Day,Hour,Minute,Value (Times are PST for temperature in C)
2021,04,16,00,00,9.50
2021,04,16,00,01,9.40
2021,04,16,00,02,9.40
2021,04,16,00,03,9.30
2021,04,16,00,04,9.30
2021,04,16,00,05,9.20
2021,04,16,00,06,9.20
2021,04,16,00,07,9.10
2021,04,16,00,08,9.10
2021,04,16,00,09,9.00
2021,04,16,00,10,8.90
2021,04,16,00,11,8.90
2021,04,16,00,12,8.90
2021,04,16,00,13,8.80
2021,04,16,00,14,8.80
2021,04,16,00,15,8.80
2021,04,16,00,16,8.80
2021,04,16,00,17,8.80
2021,04,16,00,18,8.80
2021,04,16,00,19,8.70
2021,04,16,00,20,8.70
2021,04,16,00,21,8.70
2021,04,16,00,22,8.70
2021,04,16,00,23,8.70
2021,04,16,00,24,8.70
2021,04,16,00,25,8.70
2021,04,16,00,26,8.60
2021,04,16,00,27,8.70
2021,04,16,00,28,8.60
2021,04,16,00,29,8.60
2021,04,16,00,30,8.60
2021,04,16,00,31,8.60
2021,04,16,00,32,8.60
2021,04,16,00,33,8.60
2021,04,16,00,34,8.60
2021,04,16,00,35,8.60
2021,04,16,00,36,8.60
2021,04,16,00,37,8.60
2021,04,16,00,38,8.60
2021,04,16,00,39,8.50
2021,04,16,00,40,8.40
2021,04,16,00,41,8.40
2021,04,16,00,42,8.40
2021,04,16,00,43,8.30
2021,04,16,00,44,8.30
2021,04,16,00,45,8.30
2021,04,16,00,46,8.20
2021,04,16,00,47,8.20
2021,04,16,00,48,8.20
2021,04,16,00,49,8.10
2021,04,16,00,50,8.10
2021,04,16,00,51,8.10
2021,04,16,00,52,8.00
2021,04,16,00,53,8.00
2021,04,16,00,54,7.90
2021,04,16,00,55,7.90
2021,04,16,00,56,7.90
2021,04,16,00,57,7.90
2021,04,16,00,58,7.90
2021,04,16,00,59,7.80
2021,04,16,01,00,7.80
2021,04,16,01,01,7.80
2021,04,16,01,02,7.80
2021,04,16,01,03,7.80
2021,04,16,01,04,7.80
2021,04,16,01,05,7.80
2021,04,16,01,06,7.80
2021,04,16,01,07,7.80
2021,04,16,01,08,7.80
2021,04,16,01,09,7.70
2021,04,16,01,10,7.70
2021,04,16,01,11,7.70
2021,04,16,01,12,7.70
2021,04,16,01,13,7.70
2021,04,16,01,14,7.60
2021,04,16,01,15,7.60
2021,04,16,01,16,7.60
2021,04,16,01,17,7.60
2021,04,16,01,18,7.60
2021,04,16,01,19,7.60
2021,04,16,01,20,7.60
2021,04,16,01,21,7.60
2021,04,16,01,22,7.60
2021,04,16,01,23,7.60
2021,04,16,01,24,7.60
2021,04,16,01,25,7.50
2021,04,16,01,26,7.50
2021,04,16,01,27,7.40
2021,04,16,01,28,7.40
2021,04,16,01,29,7.40
2021,04,16,01,30,7.40
2021,04,16,01,31,7.40
2021,04,16,01,32,7.30
2021,04,16,01,33,7.30
2021,04,16,01,34,7.30
2021,04,16,01,35,7.30
2021,04,16,01,36,7.30
2021,04,16,01,37,7.30
2021,04,16,01,38,7.30
2021,04,16,01,39,7.30
2021,04,16,01,40,7.30
2021,04,16,01,41,7.20
2021,04,16,01,42,7.20
2021,04,16,01,43,7.20
2021,04,16,01,44,7.20
2021,04,16,01,45,7.20
2021,04,16,01,46,7.20
2021,04,16,01,47,7.20
2021,04,16,01,48,7.20
2021,04,16,01,49,7.20
2021,04,16,01,50,7.20
2021,04,16,01,51,7.10
2021,04,16,01,52,7.10
2021,04,16,01,53,7.10
2021,04,16,01,54,7.00
2021,04,16,01,55,7.00
2021,04,16,01,56,6.90
2021,04,16,01,57,6.90
2021,04,16,01,58,6.90
2021,04,16,01,59,6.90
2021,04,16,02,00,6.80
2021,04,16,02,01,6.80
2021,04,16,02,02,6.80
2021,04,16,02,03,6.80
2021,04,16,02,04,6.80
2021,04,16,02,05,6.70
2021,04,16,02,06,6.70
2021,04,16,02,07,6.70
2021,04,16,02,08,6.70
2021,04,16,02,09,6.70
2021,04,16,02,10,6.60
2021,04,16,02,11,6.60
2021,04,16,02,12,6.60
2021,04,16,02,13,6.60
2021,04,16,02,14,6.60
2021,04,16,02,15,6.60
2021,04,16,02,16,6.60
2021,04,16,02,17,6.50
2021,04,16,02,18,6.60
2021,04,16,02,19,6.60
2021,04,16,02,20,6.60
2021,04,16,02,21,6.60
2021,04,16,02,22,6.60
2021,04,16,02,23,6.60
2021,04,16,02,24,6.60
2021,04,16,02,25,6.60
2021,04,16,02,26,6.60
2021,04,16,02,27,6.60
2021,04,16,02,28,6.60
2021,04,16,02,29,6.60
2021,04,16,02,30,6.60
2021,04,16,02,31,6.60
2021,04,16,02,32,6.60
2021,04,16,02,33,6.60
2021,04,16,02,34,6.60
2021,04,16,02,35,6.60
2021,04,16,02,36,6.50
2021,04,16,02,37,6.50
2021,04,16,02,38,6.50
2021,04,16,02,39,6.40
2021,04,16,02,40,6.40
2021,04,16,02,41,6.40
2021,04,16,02,42,6.30
2021,04,16,02,43,6.30
2021,04,16,02,44,6.30
2021,04,16,02,45,6.30
2021,04,16,02,46,6.30
2021,04,16,02,47,6.30
2021,04,16,02,48,6.30
2021,04,16,02,49,6.20
2021,04,16,02,50,6.20
2021,04,16,02,51,6.20
2021,04,16,02,52,6.20
2021,04,16,02,53,6.20
2021,04,16,02,54,6.20
2021,04,16,02,55,6.10
2021,04,16,02,56,6.10
2021,04,16,02,57,6.10
2021,04,16,02,58,6.10
2021,04,16,02,59,6.00
2021,04,16,03,00,6.00
2021,04,16,03,01,5.90
2021,04,16,03,02,5.90
2021,04,16,03,03,5.90
2021,04,16,03,04,5.90
2021,04,16,03,05,5.80
2021,04,16,03,06,5.80
2021,04,16,03,07,5.80
2021,04,16,03,08,5.80
2021,04,16,03,09,5.80
2021,04,16,03,10,5.70
2021,04,16,03,11,5.70
2021,04,16,03,12,5.70
2021,04,16,03,13,5.70
2021,04,16,03,14,5.70
2021,04,16,03,15,5.60
2021,04,16,03,16,5.60
2021,04,16,03,17,5.60
2021,04,16,03,18,5.60
2021,04,16,03,19,5.70
2021,04,16,03,20,5.70
2021,04,16,03,21,5.70
2021,04,16,03,22,5.70
2021,04,16,03,23,5.70
2021,04,16,03,24,5.60
2021,04,16,03,25,5.60
2021,04,16,03,26,5.60
2021,04,16,03,27,5.60
2021,04,16,03,28,5.60
2021,04,16,03,29,5.60
2021,04,16,03,30,5.60
2021,04,16,03,31,5.60
2021,04,16,03,32,5.60
2021,04,16,03,33,5.60
2021,04,16,03,34,5.60
2021,04,16,03,35,5.60
2021,04,16,03,36,5.50
2021,04,16,03,37,5.50
2021,04,16,03,38,5.40
2021,04,16,03,39,5.40
2021,04,16,03,40,5.40
2021,04,16,03,41,5.40
2021,04,16,03,42,5.40
2021,04,16,03,43,5.50
2021,04,16,03,44,5.50
2021,04,16,03,45,5.50
2021,04,16,03,46,5.50
2021,04,16,03,47,5.60
2021,04,16,03,48,5.60
2021,04,16,03,49,5.60
2021,04,16,03,50,5.60
2021,04,16,03,51,5.50
2021,04,16,03,52,5.50
2021,04,16,03,53,5.50
2021,04,16,03,54,5.50
2021,04,16,03,55,5.50
2021,04,16,03,56,5.50
2021,04,16,03,57,5.50
2021,04,16,03,58,5.50
2021,04,16,03,59,5.50
2021,04,16,04,00,5.40
2021,04,16,04,01,5.40
2021,04,16,04,02,5.40
2021,04,16,04,03,5.40
2021,04,16,04,04,5.40
2021,04,16,04,05,5.40
2021,04,16,04,06,5.40
2021,04,16,04,07,5.40
2021,04,16,04,08,5.40
2021,04,16,04,09,5.30
2021,04,16,04,10,5.30
2021,04,16,04,11,5.30
2021,04,16,04,12,5.30
2021,04,16,04,13,5.30
2021,04,16,04,14,5.30
2021,04,16,04,15,5.30
2021,04,16,04,16,5.30
2021,04,16,04,17,5.20
2021,04,16,04,18,5.20
2021,04,16,04,19,5.20
2021,04,16,04,20,5.20
2021,04,16,04,21,5.20
2021,04,16,04,22,5.10
2021,04,16,04,23,5.10
2021,04,16,04,24,5.10
2021,04,16,04,25,5.10
2021,04,16,04,26,5.00
2021,04,16,04,27,5.00
2021,04,16,04,28,5.00
2021,04,16,04,29,4.90
2021,04,16,04,30,4.90
2021,04,16,04,31,4.90
2021,04,16,04,32,4.90
2021,04,16,04,33,4.80
2021,04,16,04,34,4.80
2021,04,16,04,35,4.80
2021,04,16,04,36,4.80
2021,04,16,04,37,4.80
2021,04,16,04,38,4.70
2021,04,16,04,39,4.70
2021,04,16,04,40,4.70
2021,04,16,04,41,4.70
2021,04,16,04,42,4.70
2021,04,16,04,43,4.70
2021,04,16,04,44,4.70
2021,04,16,04,45,4.70
2021,04,16,04,46,4.70
2021,04,16,04,47,4.70
2021,04,16,04,48,4.70
2021,04,16,04,49,4.70
2021,04,16,04,50,4.70
2021,04,16,04,51,4.70
2021,04,16,04,52,4.60
2021,04,16,04,53,4.60
2021,04,16,04,54,4.60
2021,04,16,04,55,4.60
2021,04,16,04,56,4.60
2021,04,16,04,57,4.60
2021,04,16,04,58,4.60
2021,04,16,04,59,4.60
2021,04,16,05,00,4.60
2021,04,16,05,01,4.60
2021,04,16,05,02,4.60
2021,04,16,05,03,4.60
2021,04,16,05,04,4.50
2021,04,16,05,05,4.50
2021,04,16,05,06,4.50
2021,04,16,05,07,4.50
2021,04,16,05,08,4.50
2021,04,16,05,09,4.50
2021,04,16,05,10,4.50
2021,04,16,05,11,4.50
2021,04,16,05,12,4.50
2021,04,16,05,13,4.50
2021,04,16,05,14,4.40
2021,04,16,05,15,4.40
2021,04,16,05,16,4.40
2021,04,16,05,17,4.40
2021,04,16,05,18,4.40
2021,04,16,05,19,4.40
2021,04,16,05,20,4.40
2021,04,16,05,21,4.30
2021,04,16,05,22,4.30
2021,04,16,05,23,4.30
2021,04,16,05,24,4.30
2021,04,16,05,25,4.30
2021,04,16,05,26,4.30
2021,04,16,05,27,4.30
2021,04,16,05,28,4.30
2021,04,16,05,29,4.30
2021,04,16,05,30,4.30
2021,04,16,05,31,4.30
2021,04,16,05,32,4.30
2021,04,16,05,33,4.30
2021,04,16,05,34,4.30
2021,04,16,05,35,4.30
2021,04,16,05,36,4.30
2021,04,16,05,37,4.30
2021,04,16,05,38,4.30
2021,04,16,05,39,4.30
2021,04,16,05,40,4.30
2021,04,16,05,41,4.30
2021,04,16,05,42,4.30
2021,04,16,05,43,4.30
2021,04,16,05,44,4.30
2021,04,16,05,45,4.20
2021,04,16,05,46,4.20
2021,04,16,05,47,4.20
2021,04,16,05,48,4.20
2021,04,16,05,49,4.20
2021,04,16,05,50,4.20
2021,04,16,05,51,4.10
2021,04,16,05,52,4.10
2021,04,16,05,53,4.10
2021,04,16,05,54,4.10
2021,04,16,05,55,4.10
2021,04,16,05,56,4.10
2021,04,16,05,57,4.10
2021,04,16,05,58,4.00
2021,04,16,05,59,4.00
2021,04,16,06,00,4.10
2021,04,16,06,01,4.10
2021,04,16,06,02,4.10
2021,04,16,06,03,4.10
2021,04,16,06,04,4.10
2021,04,16,06,05,4.10
2021,04,16,06,06,4.10
2021,04,16,06,07,4.10
2021,04,16,06,08,4.10
2021,04,16,06,09,4.10
2021,04,16,06,10,4.10
2021,04,16,06,11,4.10
2021,04,16,06,12,4.10
2021,04,16,06,13,4.00
2021,04,16,06,14,4.00
2021,04,16,06,15,4.00
2021,04,16,06,16,3.90
2021,04,16,06,17,3.90
2021,04,16,06,18,3.90
2021,04,16,06,19,3.90
2021,04,16,06,20,3.80
2021,04,16,06,21,3.80
2021,04,16,06,22,3.80
2021,04,16,06,23,3.80
2021,04,16,06,24,3.80
2021,04,16,06,25,3.80
2021,04,16,06,26,3.80
2021,04,16,06,27,3.80
2021,04,16,06,28,3.80
2021,04,16,06,29,3.80
2021,04,16,06,30,3.80
2021,04,16,06,31,3.70
2021,04,16,06,32,3.70
2021,04,16,06,33,3.70
2021,04,16,06,34,3.70
2021,04,16,06,35,3.70
2021,04,16,06,36,3.70
2021,04,16,06,37,3.70
2021,04,16,06,38,3.70
2021,04,16,06,39,3.60
2021,04,16,06,40,3.60
2021,04,16,06,41,3.60
2021,04,16,06,42,3.60
2021,04,16,06,43,3.60
2021,04,16,06,44,3.60
2021,04,16,06,45,3.60
2021,04,16,06,46,3.50
2021,04,16,06,47,3.50
2021,04,16,06,48,3.50
2021,04,16,06,49,3.50
2021,04,16,06,50,3.50
2021,04,16,06,51,3.50
2021,04,16,06,52,3.50
2021,04,16,06,53,3.50
2021,04,16,06,54,3.50
2021,04,16,06,55,3.60
2021,04,16,06,56,3.60
2021,04,16,06,57,3.60
2021,04,16,06,58,3.60
2021,04,16,06,59,3.60
2021,04,16,07,00,3.70
2021,04,16,07,01,3.70
2021,04,16,07,02,3.70
2021,04,16,07,03,3.70
2021,04,16,07,04,3.80
2021,04,16,07,05,3.80
2021,04,16,07,06,3.80
2021,04,16,07,07,3.80
2021,04,16,07,08,3.80
2021,04,16,07,09,3.90
2021,04,16,07,10,3.90
2021,04,16,07,11,3.90
2021,04,16,07,12,3.90
2021,04,16,07,13,3.90
2021,04,16,07,14,4.00
2021,04,16,07,15,4.00
2021,04,16,07,16,4.10
2021,04,16,07,17,4.10
2021,04,16,07,18,4.10
2021,04,16,07,19,4.10
2021,04,16,07,20,4.20
2021,04,16,07,21,4.20
2021,04,16,07,22,4.20
2021,04,16,07,23,4.30
2021,04,16,07,24,4.30
2021,04,16,07,25,4.30
2021,04,16,07,26,4.30
2021,04,16,07,27,4.30
2021,04,16,07,28,4.30
2021,04,16,07,29,4.40
2021,04,16,07,30,4.40
2021,04,16,07,31,4.40
2021,04,16,07,32,4.40
2021,04,16,07,33,4.40
2021,04,16,07,34,4.50
2021,04,16,07,35,4.50
2021,04,16,07,36,4.50
2021,04,16,07,37,4.50
2021,04,16,07,38,4.60
2021,04,16,07,39,4.60
2021,04,16,07,40,4.70
2021,04,16,07,41,4.70
2021,04,16,07,42,4.70
2021,04,16,07,43,4.80
2021,04,16,07,44,4.80
2021,04,16,07,45,4.90
2021,04,16,07,46,4.90
2021,04,16,07,47,5.00
2021,04,16,07,48,5.10
2021,04,16,07,49,5.20
2021,04,16,07,50,5.40
2021,04,16,07,51,5.40
2021,04,16,07,52,5.60
2021,04,16,07,53,5.60
2021,04,16,07,54,5.70
2021,04,16,07,55,5.80
2021,04,16,07,56,5.80
2021,04,16,07,57,5.80
2021,04,16,07,58,5.80
2021,04,16,07,59,5.80
2021,04,16,08,00,5.90
2021,04,16,08,01,5.90
2021,04,16,08,02,6.00
2021,04,16,08,03,6.10
2021,04,16,08,04,6.10
2021,04,16,08,05,6.10
2021,04,16,08,06,6.10
2021,04,16,08,07,6.20
2021,04,16,08,08,6.20
2021,04,16,08,09,6.20
2021,04,16,08,10,6.20
2021,04,16,08,11,6.20
2021,04,16,08,12,6.30
2021,04,16,08,13,6.30
2021,04,16,08,14,6.30
2021,04,16,08,15,6.30
2021,04,16,08,16,6.40
2021,04,16,08,17,6.40
2021,04,16,08,18,6.50
2021,04,16,08,19,6.50
2021,04,16,08,20,6.60
2021,04,16,08,21,6.70
2021,04,16,08,22,6.80
2021,04,16,08,23,6.80
2021,04,16,08,24,6.90
2021,04,16,08,25,7.00
2021,04,16,08,26,7.00
2021,04,16,08,27,7.10
2021,04,16,08,28,7.20
2021,04,16,08,29,7.30
2021,04,16,08,30,7.30
2021,04,16,08,31,7.40
2021,04,16,08,32,7.50
2021,04,16,08,33,7.50
2021,04,16,08,34,7.60
2021,04,16,08,35,7.60
2021,04,16,08,36,7.70
2021,04,16,08,37,7.80
2021,04,16,08,38,7.90
2021,04,16,08,39,8.00
2021,04,16,08,40,8.10
2021,04,16,08,41,8.30
2021,04,16,08,42,8.30
2021,04,16,08,43,8.40
2021,04,16,08,44,8.40
2021,04,16,08,45,8.50
2021,04,16,08,46,8.60
2021,04,16,08,47,8.70
2021,04,16,08,48,8.70
2021,04,16,08,49,8.80
2021,04,16,08,50,8.80
2021,04,16,08,51,8.90
2021,04,16,08,52,8.90
2021,04,16,08,53,8.90
2021,04,16,08,54,8.90
2021,04,16,08,55,9.00
2021,04,16,08,56,9.00
2021,04,16,08,57,9.00
2021,04,16,08,58,9.10
2021,04,16,08,59,9.10
2021,04,16,09,00,9.10
2021,04,16,09,01,9.20
2021,04,16,09,02,9.20
2021,04,16,09,03,9.30
2021,04,16,09,04,9.30
2021,04,16,09,05,9.40
2021,04,16,09,06,9.50
2021,04,16,09,07,9.60
2021,04,16,09,08,9.60
2021,04,16,09,09,9.70
2021,04,16,09,10,9.80
2021,04,16,09,11,9.80
2021,04,16,09,12,9.90
2021,04,16,09,13,10.00
2021,04,16,09,14,10.00
2021,04,16,09,15,10.00
2021,04,16,09,16,10.10
2021,04,16,09,17,10.20
2021,04,16,09,18,10.30
2021,04,16,09,19,10.30
2021,04,16,09,20,10.40
2021,04,16,09,21,10.50
2021,04,16,09,22,10.50
2021,04,16,09,23,10.50
2021,04,16,09,24,10.50
2021,04,16,09,25,10.60
2021,04,16,09,26,10.60
2021,04,16,09,27,10.60
2021,04,16,09,28,10.60
2021,04,16,09,29,10.60
2021,04,16,09,30,10.70
2021,04,16,09,31,10.70
2021,04,16,09,32,10.80
2021,04,16,09,33,10.90
2021,04,16,09,34,11.00
2021,04,16,09,35,11.00
2021,04,16,09,36,11.10
2021,04,16,09,37,11.20
2021,04,16,09,38,11.20
2021,04,16,09,39,11.30
2021,04,16,09,40,11.30
2021,04,16,09,41,11.50
2021,04,16,09,42,11.60
2021,04,16,09,43,11.80
2021,04,16,09,44,11.90
2021,04,16,09,45,12.10
2021,04,16,09,46,12.20
2021,04,16,09,47,12.30
2021,04,16,09,48,12.50
2021,04,16,09,49,12.60
2021,04,16,09,50,12.80
2021,04,16,09,51,12.90
2021,04,16,09,52,13.10
2021,04,16,09,53,13.10
2021,04,16,09,54,13.30
2021,04,16,09,55,13.40
2021,04,16,09,56,13.50
2021,04,16,09,57,13.60
2021,04,16,09,58,13.60
2021,04,16,09,59,13.70
2021,04,16,10,00,13.70
2021,04,16,10,01,13.70
2021,04,16,10,02,13.70
2021,04,16,10,03,13.70
2021,04,16,10,04,13.70
2021,04,16,10,05,13.60
2021,04,16,10,06,13.60
2021,04,16,10,07,13.60
2021,04,16,10,08,13.60
2021,04,16,10,09,13.60
2021,04,16,10,10,13.60
2021,04,16,10,11,13.70
2021,04,16,10,12,13.70
2021,04,16,10,13,13.80
2021,04,16,10,14,13.90
2021,04,16,10,15,14.10
2021,04,16,10,16,14.20
2021,04,16,10,17,14.40
2021,04,16,10,18,14.60
2021,04,16,10,19,14.60
2021,04,16,10,20,14.70
2021,04,16,10,21,14.60
2021,04,16,10,22,14.60
2021,04,16,10,23,14.60
2021,04,16,10,24,14.60
2021,04,16,10,25,14.50
2021,04,16,10,26,14.50
2021,04,16,10,27,14.50
2021,04,16,10,28,14.50
2021,04,16,10,29,14.50
2021,04,16,10,30,14.50
2021,04,16,10,31,14.50
2021,04,16,10,32,14.50
2021,04,16,10,33,15.30
2021,04,16,10,34,15.40
2021,04,16,10,35,15.50
2021,04,16,10,36,15.60
2021,04,16,10,37,15.70
2021,04,16,10,38,15.80
2021,04,16,10,39,15.80
2021,04,16,10,40,15.70
2021,04,16,10,41,15.70
2021,04,16,10,42,15.60
2021,04,16,10,43,15.50
2021,04,16,10,44,15.50
2021,04,16,10,45,15.60
2021,04,16,10,46,15.60
2021,04,16,10,47,15.60
2021,04,16,10,48,15.60
2021,04,16,10,49,15.60
2021,04,16,10,50,15.60
2021,04,16,10,51,15.60
2021,04,16,10,52,15.60
2021,04,16,10,53,15.60
2021,04,16,10,54,15.60
2021,04,16,10,55,15.70
2021,04,16,10,56,15.80
2021,04,16,10,57,15.90
2021,04,16,10,58,16.10
2021,04,16,10,59,16.20
2021,04,16,11,00,16.40
2021,04,16,11,01,16.50
2021,04,16,11,02,16.70
2021,04,16,11,03,16.70
2021,04,16,11,04,16.70
2021,04,16,11,05,16.70
2021,04,16,11,06,16.70
2021,04,16,11,07,16.70
2021,04,16,11,08,16.80
2021,04,16,11,09,16.80
2021,04,16,11,10,16.90
2021,04,16,11,11,16.90
2021,04,16,11,12,17.00
2021,04,16,11,13,17.10
2021,04,16,11,14,17.10
2021,04,16,11,15,17.10
2021,04,16,11,16,17.20
2021,04,16,11,17,17.20
2021,04,16,11,18,17.20
2021,04,16,11,19,17.20
2021,04,16,11,20,17.30
2021,04,16,11,21,17.40
2021,04,16,11,22,17.50
2021,04,16,11,23,17.60
2021,04,16,11,24,17.70
2021,04,16,11,25,17.70
2021,04,16,11,26,17.80
2021,04,16,11,27,17.80
2021,04,16,11,28,17.70
2021,04,16,11,29,17.70
2021,04,16,11,30,17.70
2021,04,16,11,31,17.70
2021,04,16,11,32,17.70
2021,04,16,11,33,17.70
2021,04,16,11,34,17.70
2021,04,16,11,35,17.70
2021,04,16,11,36,17.70
2021,04,16,11,37,17.70
2021,04,16,11,38,17.70
2021,04,16,11,39,17.80
2021,04,16,11,40,17.80
2021,04,16,11,41,17.80
2021,04,16,11,42,17.90
2021,04,16,11,43,17.90
2021,04,16,11,44,18.00
2021,04,16,11,45,18.10
2021,04,16,11,46,18.20
2021,04,16,11,47,18.20
2021,04,16,11,48,18.30
2021,04,16,11,49,18.40
2021,04,16,11,50,18.50
2021,04,16,11,51,18.50
2021,04,16,11,52,18.60
2021,04,16,11,53,18.70
2021,04,16,11,54,18.70
2021,04,16,11,55,18.80
2021,04,16,11,56,18.90
2021,04,16,11,57,18.90
2021,04,16,11,58,18.90
2021,04,16,11,59,18.90
2021,04,16,12,00,19.20
2021,04,16,12,01,19.30
2021,04,16,12,02,19.30
2021,04,16,12,03,19.30
2021,04,16,12,04,19.30
2021,04,16,12,05,19.30
2021,04,16,12,06,19.40
2021,04,16,12,07,19.40
2021,04,16,12,08,19.40
2021,04,16,12,09,19.50
2021,04,16,12,10,19.60
2021,04,16,12,11,19.60
2021,04,16,12,12,19.70
2021,04,16,12,13,19.80
2021,04,16,12,14,19.80
2021,04,16,12,15,19.90
2021,04,16,12,16,19.90
2021,04,16,12,17,20.00
2021,04,16,12,18,20.00
2021,04,16,12,19,20.00
2021,04,16,12,20,20.10
2021,04,16,12,21,20.20
2021,04,16,12,22,20.30
2021,04,16,12,23,20.40
2021,04,16,12,24,20.60
2021,04,16,12,25,20.70
2021,04,16,12,26,20.80
2021,04,16,12,27,20.90
2021,04,16,12,28,20.90
2021,04,16,12,29,21.00
2021,04,16,12,30,20.90
2021,04,16,12,31,20.90
2021,04,16,12,32,20.90
2021,04,16,12,33,20.90
2021,04,16,12,34,21.00
2021,04,16,12,35,21.00
2021,04,16,12,36,21.00
2021,04,16,12,37,21.00
2021,04,16,12,38,21.00
2021,04,16,12,39,21.10
2021,04,16,12,40,21.10
2021,04,16,12,41,21.20
2021,04,16,12,42,21.30
2021,04,16,12,43,21.30
2021,04,16,12,44,21.20
2021,04,16,12,45,21.10
2021,04,16,12,46,21.10
2021,04,16,12,47,21.10
2021,04,16,12,48,21.10
2021,04,16,12,49,21.20
2021,04,16,12,50,21.30
2021,04,16,12,51,21.40
2021,04,16,12,52,21.40
2021,04,16,12,53,21.50
2021,04,16,12,54,21.50
2021,04,16,12,55,21.50
2021,04,16,12,56,21.50
2021,04,16,12,57,21.50
2021,04,16,12,58,21.60
2021,04,16,12,59,21.70
2021,04,16,13,00,21.80
2021,04,16,13,01,21.90
2021,04,16,13,02,22.10
2021,04,16,13,03,22.20
2021,04,16,13,04,22.20
2021,04,16,13,05,22.30
2021,04,16,13,06,22.30
2021,04,16,13,07,22.40
2021,04,16,13,08,22.40
2021,04,16,13,09,22.40
2021,04,16,13,10,22.50
2021,04,16,13,11,22.50
2021,04,16,13,12,22.60
2021,04,16,13,13,22.70
2021,04,16,13,14,22.80
2021,04,16,13,15,22.90
2021,04,16,13,16,23.00
2021,04,16,13,17,23.10
2021,04,16,13,18,23.10
2021,04,16,13,19,23.20
2021,04,16,13,20,23.20
2021,04,16,13,21,23.20
2021,04,16,13,22,23.10
2021,04,16,13,23,23.00
2021,04,16,13,24,22.90
2021,04,16,13,25,22.90
2021,04,16,13,26,23.00
2021,04,16,13,27,23.00
2021,04,16,13,28,23.10
2021,04,16,13,29,23.20
2021,04,16,13,30,23.30
2021,04,16,13,31,23.30
2021,04,16,13,32,23.50
2021,04,16,13,33,23.60
2021,04,16,13,34,23.70
2021,04,16,13,35,23.70
2021,04,16,13,36,23.70
2021,04,16,13,37,23.70
2021,04,16,13,38,23.70
2021,04,16,13,39,23.70
2021,04,16,13,40,23.80
2021,04,16,13,41,23.80
2021,04,16,13,42,23.90
2021,04,16,13,43,24.00
2021,04,16,13,44,24.00
2021,04,16,13,45,24.10
2021,04,16,13,46,24.20
2021,04,16,13,47,24.20
2021,04,16,13,48,24.30
2021,04,16,13,49,24.20
2021,04,16,13,50,24.20
2021,04,16,13,51,24.20
2021,04,16,13,52,24.20
2021,04,16,13,53,24.30
2021,04,16,13,54,24.30
2021,04,16,13,55,24.40
2021,04,16,13,56,24.50
2021,04,16,13,57,24.50
2021,04,16,13,58,24.60
2021,04,16,13,59,24.60
2021,04,16,14,00,24.70
2021,04,16,14,01,24.70
2021,04,16,14,02,24.70
2021,04,16,14,03,24.70
2021,04,16,14,04,24.70
2021,04,16,14,05,24.70
2021,04,16,14,06,24.60
2021,04,16,14,07,24.60
2021,04,16,14,08,24.70
2021,04,16,14,09,24.70
2021,04,16,14,10,24.70
2021,04,16,14,11,24.80
2021,04,16,14,12,24.80
2021,04,16,14,13,24.80
2021,04,16,14,14,24.80
2021,04,16,14,15,24.90
2021,04,16,14,16,25.00
2021,04,16,14,17,25.10
2021,04,16,14,18,25.20
2021,04,16,14,19,25.20
2021,04,16,14,20,25.20
2021,04,16,14,21,25.20
2021,04,16,14,22,25.10
2021,04,16,14,23,25.10
2021,04,16,14,24,25.10
2021,04,16,14,25,25.20
2021,04,16,14,26,25.20
2021,04,16,14,27,25.20
2021,04,16,14,28,25.10
2021,04,16,14,29,25.10
2021,04,16,14,30,25.20
2021,04,16,14,31,25.20
2021,04,16,14,32,25.30
2021,04,16,14,33,25.40
2021,04,16,14,34,25.50
2021,04,16,14,35,25.60
2021,04,16,14,36,25.70
2021,04,16,14,37,25.80
2021,04,16,14,38,25.90
2021,04,16,14,39,25.90
2021,04,16,14,40,25.90
2021,04,16,14,41,25.90
2021,04,16,14,42,25.90
2021,04,16,14,43,25.90
2021,04,16,14,44,26.00
2021,04,16,14,45,26.00
2021,04,16,14,46,26.10
2021,04,16,14,47,26.10
2021,04,16,14,48,26.10
2021,04,16,14,49,26.10
2021,04,16,14,50,26.00
2021,04,16,14,51,25.90
2021,04,16,14,52,25.90
2021,04,16,14,53,25.80
2021,04,16,14,54,25.80
2021,04,16,14,55,25.80
2021,04,16,14,56,25.80
2021,04,16,14,57,25.80
2021,04,16,14,58,25.70
2021,04,16,14,59,25.70
2021,04,16,15,00,25.70
2021,04,16,15,01,25.70
2021,04,16,15,02,25.70
2021,04,16,15,03,25.70
2021,04,16,15,04,25.60
2021,04,16,15,05,25.60
2021,04,16,15,06,25.60
2021,04,16,15,07,25.60
2021,04,16,15,08,25.60
2021,04,16,15,09,25.60
2021,04,16,15,10,25.60
2021,04,16,15,11,25.60
2021,04,16,15,12,25.60
2021,04,16,15,13,25.70
2021,04,16,15,14,25.70
2021,04,16,15,15,25.70
2021,04,16,15,16,25.70
2021,04,16,15,17,25.70
2021,04,16,15,18,25.70
2021,04,16,15,19,25.70
2021,04,16,15,20,25.80
2021,04,16,15,21,25.80
2021,04,16,15,22,25.80
2021,04,16,15,23,25.80
2021,04,16,15,24,25.80
2021,04,16,15,25,25.80
2021,04,16,15,26,25.90
2021,04,16,15,27,26.00
2021,04,16,15,28,26.00
2021,04,16,15,29,26.00
2021,04,16,15,30,25.90
2021,04,16,15,31,25.80
2021,04,16,15,32,25.80
2021,04,16,15,33,25.80
2021,04,16,15,34,25.80
2021,04,16,15,35,25.80
2021,04,16,15,36,25.80
2021,04,16,15,37,25.80
2021,04,16,15,38,25.90
2021,04,16,15,39,25.90
2021,04,16,15,40,26.00
2021,04,16,15,41,26.10
2021,04,16,15,42,26.20
2021,04,16,15,43,26.20
2021,04,16,15,44,26.20
2021,04,16,15,45,26.20
2021,04,16,15,46,26.10
2021,04,16,15,47,26.00
2021,04,16,15,48,25.90
2021,04,16,15,49,25.90
2021,04,16,15,50,25.80
2021,04,16,15,51,25.80
2021,04,16,15,52,25.80
2021,04,16,15,53,25.80
2021,04,16,15,54,25.80
2021,04,16,15,55,25.80
2021,04,16,15,56,25.80
2021,04,16,15,57,25.90
2021,04,16,15,58,26.00
2021,04,16,15,59,26.00
2021,04,16,16,00,26.10
2021,04,16,16,01,26.10
2021,04,16,16,02,26.00
2021,04,16,16,03,26.00
2021,04,16,16,04,26.00
2021,04,16,16,05,26.00
2021,04,16,16,06,26.00
2021,04,16,16,07,26.00
2021,04,16,16,08,26.00
2021,04,16,16,09,25.90
2021,04,16,16,10,25.90
2021,04,16,16,11,25.80
2021,04,16,16,12,25.80
2021,04,16,16,13,25.80
2021,04,16,16,14,25.80
2021,04,16,16,15,25.80
2021,04,16,16,16,25.80
2021,04,16,16,17,25.80
2021,04,16,16,18,25.80
2021,04,16,16,19,25.90
2021,04,16,16,20,25.90
2021,04,16,16,21,25.90
2021,04,16,16,22,25.90
2021,04,16,16,23,25.80
2021,04,16,16,24,25.80
2021,04,16,16,25,25.80
2021,04,16,16,26,25.80
2021,04,16,16,27,25.90
2021,04,16,16,28,25.90
2021,04,16,16,29,26.00
2021,04,16,16,30,26.00
2021,04,16,16,31,26.00
2021,04,16,16,32,26.00
2021,04,16,16,33,25.90
2021,04,16,16,34,25.90
2021,04,16,16,35,25.80
2021,04,16,16,36,25.80
2021,04,16,16,37,25.80
2021,04,16,16,38,25.80
2021,04,16,16,39,25.80
2021,04,16,16,40,25.80
2021,04,16,16,41,25.80
2021,04,16,16,42,25.80
2021,04,16,16,43,25.80
2021,04,16,16,44,25.80
2021,04,16,16,45,25.90
2021,04,16,16,46,25.90
2021,04,16,16,47,25.80
2021,04,16,16,48,25.80
2021,04,16,16,49,25.80
2021,04,16,16,50,25.70
2021,04,16,16,51,25.70
2021,04,16,16,52,25.70
2021,04,16,16,53,25.70
2021,04,16,16,54,25.70
2021,04,16,16,55,25.70
2021,04,16,16,56,25.70
2021,04,16,16,57,25.70
2021,04,16,16,58,25.70
2021,04,16,16,59,25.70
2021,04,16,17,00,25.70
2021,04,16,17,01,25.70
2021,04,16,17,02,25.70
2021,04,16,17,03,25.70
2021,04,16,17,04,25.70
2021,04,16,17,05,25.70
2021,04,16,17,06,25.70
2021,04,16,17,07,25.70
2021,04,16,17,08,25.70
2021,04,16,17,09,25.70
2021,04,16,17,10,25.70
2021,04,16,17,11,25.70
2021,04,16,17,12,25.70
2021,04,16,17,13,25.70
2021,04,16,17,14,25.70
2021,04,16,17,15,25.70
2021,04,16,17,16,25.80
2021,04,16,17,17,25.80
2021,04,16,17,18,25.80
2021,04,16,17,19,25.70
2021,04,16,17,20,25.70
2021,04,16,17,21,25.70
2021,04,16,17,22,25.70
2021,04,16,17,23,25.80
2021,04,16,17,24,25.80
2021,04,16,17,25,25.80
2021,04,16,17,26,25.80
2021,04,16,17,27,25.70
2021,04,16,17,28,25.70
2021,04,16,17,29,25.80
2021,04,16,17,30,25.80
2021,04,16,17,31,25.80
2021,04,16,17,32,25.70
2021,04,16,17,33,25.70
2021,04,16,17,34,25.70
2021,04,16,17,35,25.70
2021,04,16,17,36,25.70
2021,04,16,17,37,25.70
2021,04,16,17,38,25.70
2021,04,16,17,39,25.70
2021,04,16,17,40,25.70
2021,04,16,17,41,25.70
2021,04,16,17,42,25.70
2021,04,16,17,43,25.70